Location: Killarney Provincial Park Observatory
(46.0124°N, 81.4000°W)
Time: 16:05:53
(UTC-04:00)

Iridium 22 - Visible Passes

Search period start: 29 August 2014 00:00
Search period end: 08 September 2014 00:00
Orbit: 776 x 779 km, 86.4° (Epoch: 29 August)

Date Brightness Start Highest point End Pass type
(mag) Time Alt. Az. Time Alt. Az. Time Alt. Az.
29 Aug 6.8 00:28:17 35° NNE 00:28:17 35° NNE 00:31:21 10° N visible
29 Aug 7.7 02:08:46 17° NW 02:08:46 17° NW 02:10:59 10° NNW visible
29 Aug 7.2 23:54:53 25° NE 23:54:53 25° NE 23:57:31 10° NNE visible
30 Aug 7.3 01:35:21 25° NW 01:35:21 25° NW 01:38:11 10° NNW visible
30 Aug 7.5 23:21:28 17° NE 23:21:28 17° NE 23:23:18 10° NNE visible
31 Aug 7.0 01:01:56 33° NNW 01:01:56 33° NNW 01:04:58 10° N visible
31 Aug 7.9 22:48:03 10° NE 22:48:03 10° NE 22:48:03 10° NE visible
01 Sep 6.9 00:28:31 35° N 00:28:31 35° N 00:31:31 10° N visible
01 Sep 8.0 02:08:59 12° NW 02:08:59 12° NW 02:10:12 10° NW visible
01 Sep 7.0 23:55:06 29° NNE 23:55:06 29° NNE 23:57:50 10° NNE visible
02 Sep 7.7 01:35:34 19° NW 01:35:34 19° NW 01:37:55 10° NNW visible
02 Sep 7.3 23:21:40 21° NE 23:21:40 21° NE 23:23:52 10° NNE visible
03 Sep 7.3 01:02:09 27° NNW 01:02:09 27° NNW 01:04:55 10° N visible
03 Sep 7.7 22:48:15 14° NE 22:48:15 14° NE 22:49:25 10° NE visible
04 Sep 7.0 00:28:43 33° N 00:28:43 33° N 00:31:36 10° N visible
04 Sep 7.0 23:55:17 32° NNE 23:55:17 32° NNE 23:58:03 10° N visible
05 Sep 8.0 01:35:45 15° NW 01:35:45 15° NW 01:37:25 10° NNW visible
05 Sep 7.2 23:21:50 25° NE 23:21:50 25° NE 23:24:16 10° NNE visible
06 Sep 7.6 01:02:18 22° NW 01:02:18 22° NW 01:04:44 10° NNW visible
06 Sep 7.5 22:48:24 17° NE 22:48:24 17° NE 22:50:10 10° NNE visible
07 Sep 7.3 00:28:52 29° NNW 00:28:52 29° NNW 00:31:36 10° N visible
07 Sep 7.8 22:14:57 11° NE 22:14:57 11° NE 22:15:18 10° NE visible
07 Sep 7.0 23:55:25 33° N 23:55:25 33° N 23:58:11 10° N visible
